Year,Month,Day,Hour,Minute,Value (Times are PST for temperature in C)
2012,10,01,00,00,10.80
2012,10,01,00,01,10.80
2012,10,01,00,02,10.80
2012,10,01,00,03,10.80
2012,10,01,00,04,10.90
2012,10,01,00,05,10.90
2012,10,01,00,06,10.90
2012,10,01,00,07,10.90
2012,10,01,00,08,10.80
2012,10,01,00,09,10.80
2012,10,01,00,10,10.80
2012,10,01,00,11,10.80
2012,10,01,00,12,10.80
2012,10,01,00,13,10.80
2012,10,01,00,14,10.70
2012,10,01,00,15,10.70
2012,10,01,00,16,10.70
2012,10,01,00,17,10.70
2012,10,01,00,18,10.70
2012,10,01,00,19,10.70
2012,10,01,00,20,10.70
2012,10,01,00,21,10.60
2012,10,01,00,22,10.60
2012,10,01,00,23,10.60
2012,10,01,00,24,10.60
2012,10,01,00,25,10.60
2012,10,01,00,26,10.60
2012,10,01,00,27,10.60
2012,10,01,00,28,10.60
2012,10,01,00,29,10.60
2012,10,01,00,30,10.60
2012,10,01,00,31,10.60
2012,10,01,00,32,10.60
2012,10,01,00,33,10.50
2012,10,01,00,34,10.40
2012,10,01,00,35,10.40
2012,10,01,00,36,10.40
2012,10,01,00,37,10.40
2012,10,01,00,38,10.40
2012,10,01,00,39,10.40
2012,10,01,00,40,10.40
2012,10,01,00,41,10.30
2012,10,01,00,42,10.30
2012,10,01,00,43,10.30
2012,10,01,00,44,10.30
2012,10,01,00,45,10.30
2012,10,01,00,46,10.30
2012,10,01,00,47,10.20
2012,10,01,00,48,10.20
2012,10,01,00,49,10.20
2012,10,01,00,50,10.20
2012,10,01,00,51,10.20
2012,10,01,00,52,10.20
2012,10,01,00,53,10.10
2012,10,01,00,54,10.10
2012,10,01,00,55,10.10
2012,10,01,00,56,10.10
2012,10,01,00,57,10.10
2012,10,01,00,58,10.10
2012,10,01,00,59,10.10
2012,10,01,01,00,10.10
2012,10,01,01,01,10.10
2012,10,01,01,02,10.10
2012,10,01,01,03,10.10
2012,10,01,01,04,10.10
2012,10,01,01,05,10.10
2012,10,01,01,06,10.10
2012,10,01,01,07,10.10
2012,10,01,01,08,10.10
2012,10,01,01,09,10.10
2012,10,01,01,10,10.10
2012,10,01,01,11,10.10
2012,10,01,01,12,10.00
2012,10,01,01,13,9.90
2012,10,01,01,14,9.90
2012,10,01,01,15,9.90
2012,10,01,01,16,9.90
2012,10,01,01,17,9.90
2012,10,01,01,18,9.80
2012,10,01,01,19,9.80
2012,10,01,01,20,9.80
2012,10,01,01,21,9.70
2012,10,01,01,22,9.70
2012,10,01,01,23,9.70
2012,10,01,01,24,9.70
2012,10,01,01,25,9.70
2012,10,01,01,26,9.70
2012,10,01,01,27,9.70
2012,10,01,01,28,9.70
2012,10,01,01,29,9.70
2012,10,01,01,30,9.60
2012,10,01,01,31,9.60
2012,10,01,01,32,9.60
2012,10,01,01,33,9.60
2012,10,01,01,34,9.60
2012,10,01,01,35,9.50
2012,10,01,01,36,9.50
2012,10,01,01,37,9.50
2012,10,01,01,38,9.50
2012,10,01,01,39,9.50
2012,10,01,01,40,9.50
2012,10,01,01,41,9.50
2012,10,01,01,42,9.50
2012,10,01,01,43,9.50
2012,10,01,01,44,9.50
2012,10,01,01,45,9.50
2012,10,01,01,46,9.50
2012,10,01,01,47,9.50
2012,10,01,01,48,9.50
2012,10,01,01,49,9.50
2012,10,01,01,50,9.50
2012,10,01,01,51,9.60
2012,10,01,01,52,9.60
2012,10,01,01,53,9.60
2012,10,01,01,54,9.60
2012,10,01,01,55,9.60
2012,10,01,01,56,9.60
2012,10,01,01,57,9.50
2012,10,01,01,58,9.50
2012,10,01,01,59,9.50
2012,10,01,02,00,9.60
2012,10,01,02,01,9.60
2012,10,01,02,02,9.60
2012,10,01,02,03,9.60
2012,10,01,02,04,9.50
2012,10,01,02,05,9.50
2012,10,01,02,06,9.50
2012,10,01,02,07,9.50
2012,10,01,02,08,9.50
2012,10,01,02,09,9.50
2012,10,01,02,10,9.50
2012,10,01,02,11,9.50
2012,10,01,02,12,9.50
2012,10,01,02,13,9.50
2012,10,01,02,14,9.40
2012,10,01,02,15,9.40
2012,10,01,02,16,9.40
2012,10,01,02,17,9.50
2012,10,01,02,18,9.50
2012,10,01,02,19,9.50
2012,10,01,02,20,9.50
2012,10,01,02,21,9.40
2012,10,01,02,22,9.40
2012,10,01,02,23,9.40
2012,10,01,02,24,9.30
2012,10,01,02,25,9.30
2012,10,01,02,26,9.30
2012,10,01,02,27,9.20
2012,10,01,02,28,9.20
2012,10,01,02,29,9.20
2012,10,01,02,30,9.20
2012,10,01,02,31,9.20
2012,10,01,02,32,9.20
2012,10,01,02,33,9.20
2012,10,01,02,34,9.20
2012,10,01,02,35,9.20
2012,10,01,02,36,9.20
2012,10,01,02,37,9.20
2012,10,01,02,38,9.20
2012,10,01,02,39,9.20
2012,10,01,02,40,9.20
2012,10,01,02,41,9.20
2012,10,01,02,42,9.20
2012,10,01,02,43,9.20
2012,10,01,02,44,9.20
2012,10,01,02,45,9.20
2012,10,01,02,46,9.20
2012,10,01,02,47,9.10
2012,10,01,02,48,9.10
2012,10,01,02,49,9.10
2012,10,01,02,50,9.10
2012,10,01,02,51,9.10
2012,10,01,02,52,9.10
2012,10,01,02,53,9.10
2012,10,01,02,54,9.10
2012,10,01,02,55,9.10
2012,10,01,02,56,9.10
2012,10,01,02,57,9.10
2012,10,01,02,58,9.20
2012,10,01,02,59,9.20
2012,10,01,03,00,9.20
2012,10,01,03,01,9.20
2012,10,01,03,02,9.20
2012,10,01,03,03,9.20
2012,10,01,03,04,9.20
2012,10,01,03,05,9.20
2012,10,01,03,06,9.20
2012,10,01,03,07,9.20
2012,10,01,03,08,9.20
2012,10,01,03,09,9.20
2012,10,01,03,10,9.20
2012,10,01,03,11,9.20
2012,10,01,03,12,9.20
2012,10,01,03,13,9.20
2012,10,01,03,14,9.20
2012,10,01,03,15,9.20
2012,10,01,03,16,9.20
2012,10,01,03,17,9.20
2012,10,01,03,18,9.20
2012,10,01,03,19,9.20
2012,10,01,03,20,9.20
2012,10,01,03,21,9.20
2012,10,01,03,22,9.20
2012,10,01,03,23,9.20
2012,10,01,03,24,9.20
2012,10,01,03,25,9.10
2012,10,01,03,26,9.10
2012,10,01,03,27,9.10
2012,10,01,03,28,9.20
2012,10,01,03,29,9.20
2012,10,01,03,30,9.10
2012,10,01,03,31,9.10
2012,10,01,03,32,9.10
2012,10,01,03,33,9.10
2012,10,01,03,34,9.10
2012,10,01,03,35,9.10
2012,10,01,03,36,9.10
2012,10,01,03,37,9.10
2012,10,01,03,38,9.10
2012,10,01,03,39,9.10
2012,10,01,03,40,9.10
2012,10,01,03,41,9.10
2012,10,01,03,42,9.10
2012,10,01,03,43,9.10
2012,10,01,03,44,9.10
2012,10,01,03,45,9.00
2012,10,01,03,46,9.00
2012,10,01,03,47,9.00
2012,10,01,03,48,9.00
2012,10,01,03,49,8.90
2012,10,01,03,50,8.90
2012,10,01,03,51,8.90
2012,10,01,03,52,8.90
2012,10,01,03,53,8.80
2012,10,01,03,54,8.80
2012,10,01,03,55,8.80
2012,10,01,03,56,8.80
2012,10,01,03,57,8.70
2012,10,01,03,58,8.80
2012,10,01,03,59,8.80
2012,10,01,04,00,8.80
2012,10,01,04,01,8.90
2012,10,01,04,02,8.90
2012,10,01,04,03,9.00
2012,10,01,04,04,9.00
2012,10,01,04,05,9.00
2012,10,01,04,06,9.10
2012,10,01,04,07,9.10
2012,10,01,04,08,9.10
2012,10,01,04,09,9.20
2012,10,01,04,10,9.20
2012,10,01,04,11,9.20
2012,10,01,04,12,9.20
2012,10,01,04,13,9.20
2012,10,01,04,14,9.20
2012,10,01,04,15,9.20
2012,10,01,04,16,9.20
2012,10,01,04,17,9.20
2012,10,01,04,18,9.20
2012,10,01,04,19,9.20
2012,10,01,04,20,9.20
2012,10,01,04,21,9.20
2012,10,01,04,22,9.20
2012,10,01,04,23,9.20
2012,10,01,04,24,9.20
2012,10,01,04,25,9.20
2012,10,01,04,26,9.20
2012,10,01,04,27,9.20
2012,10,01,04,28,9.20
2012,10,01,04,29,9.20
2012,10,01,04,30,9.20
2012,10,01,04,31,9.20
2012,10,01,04,32,9.20
2012,10,01,04,33,9.20
2012,10,01,04,34,9.20
2012,10,01,04,35,9.20
2012,10,01,04,36,9.20
2012,10,01,04,37,9.20
2012,10,01,04,38,9.20
2012,10,01,04,39,9.20
2012,10,01,04,40,9.20
2012,10,01,04,41,9.20
2012,10,01,04,42,9.20
2012,10,01,04,43,9.20
2012,10,01,04,44,9.10
2012,10,01,04,45,9.10
2012,10,01,04,46,9.00
2012,10,01,04,47,9.00
2012,10,01,04,48,9.00
2012,10,01,04,49,9.00
2012,10,01,04,50,9.00
2012,10,01,04,51,9.00
2012,10,01,04,52,9.10
2012,10,01,04,53,9.10
2012,10,01,04,54,9.10
2012,10,01,04,55,9.00
2012,10,01,04,56,9.00
2012,10,01,04,57,9.00
2012,10,01,04,58,9.00
2012,10,01,04,59,9.00
2012,10,01,05,00,9.10
2012,10,01,05,01,9.10
2012,10,01,05,02,9.10
2012,10,01,05,03,9.10
2012,10,01,05,04,9.10
2012,10,01,05,05,9.20
2012,10,01,05,06,9.20
2012,10,01,05,07,9.20
2012,10,01,05,08,9.20
2012,10,01,05,09,9.20
2012,10,01,05,10,9.30
2012,10,01,05,11,9.30
2012,10,01,05,12,9.30
2012,10,01,05,13,9.30
2012,10,01,05,14,9.40
2012,10,01,05,15,9.40
2012,10,01,05,16,9.40
2012,10,01,05,17,9.40
2012,10,01,05,18,9.40
2012,10,01,05,19,9.50
2012,10,01,05,20,9.50
2012,10,01,05,21,9.60
2012,10,01,05,22,9.60
2012,10,01,05,23,9.70
2012,10,01,05,24,9.70
2012,10,01,05,25,9.70
2012,10,01,05,26,9.70
2012,10,01,05,27,9.70
2012,10,01,05,28,9.70
2012,10,01,05,29,9.70
2012,10,01,05,30,9.70
2012,10,01,05,31,9.70
2012,10,01,05,32,9.70
2012,10,01,05,33,9.70
2012,10,01,05,34,9.70
2012,10,01,05,35,9.70
2012,10,01,05,36,9.70
2012,10,01,05,37,9.70
2012,10,01,05,38,9.70
2012,10,01,05,39,9.70
2012,10,01,05,40,9.70
2012,10,01,05,41,9.70
2012,10,01,05,42,9.70
2012,10,01,05,43,9.70
2012,10,01,05,44,9.70
2012,10,01,05,45,9.70
2012,10,01,05,46,9.70
2012,10,01,05,47,9.70
2012,10,01,05,48,9.70
2012,10,01,05,49,9.70
2012,10,01,05,50,9.70
2012,10,01,05,51,9.70
2012,10,01,05,52,9.70
2012,10,01,05,53,9.70
2012,10,01,05,54,9.70
2012,10,01,05,55,9.70
2012,10,01,05,56,9.80
2012,10,01,05,57,9.80
2012,10,01,05,58,9.80
2012,10,01,05,59,9.80
2012,10,01,06,00,9.80
2012,10,01,06,01,9.80
2012,10,01,06,02,9.80
2012,10,01,06,03,9.80
2012,10,01,06,04,9.90
2012,10,01,06,05,9.90
2012,10,01,06,06,9.90
2012,10,01,06,07,9.90
2012,10,01,06,08,9.90
2012,10,01,06,09,9.90
2012,10,01,06,10,9.90
2012,10,01,06,11,9.90
2012,10,01,06,12,9.90
2012,10,01,06,13,9.80
2012,10,01,06,14,9.80
2012,10,01,06,15,9.70
2012,10,01,06,16,9.70
2012,10,01,06,17,9.60
2012,10,01,06,18,9.60
2012,10,01,06,19,9.50
2012,10,01,06,20,9.50
2012,10,01,06,21,9.40
2012,10,01,06,22,9.40
2012,10,01,06,23,9.30
2012,10,01,06,24,9.30
2012,10,01,06,25,9.20
2012,10,01,06,26,9.20
2012,10,01,06,27,9.20
2012,10,01,06,28,9.20
2012,10,01,06,29,9.20
2012,10,01,06,30,9.10
2012,10,01,06,31,9.10
2012,10,01,06,32,9.10
2012,10,01,06,33,9.10
2012,10,01,06,34,9.10
2012,10,01,06,35,9.00
2012,10,01,06,36,9.00
2012,10,01,06,37,9.00
2012,10,01,06,38,9.10
2012,10,01,06,39,9.10
2012,10,01,06,40,9.10
2012,10,01,06,41,9.10
2012,10,01,06,42,9.10
2012,10,01,06,43,9.00
2012,10,01,06,44,9.10
2012,10,01,06,45,9.10
2012,10,01,06,46,9.10
2012,10,01,06,47,9.10
2012,10,01,06,48,9.10
2012,10,01,06,49,9.10
2012,10,01,06,50,9.10
2012,10,01,06,51,9.10
2012,10,01,06,52,9.10
2012,10,01,06,53,9.20
2012,10,01,06,54,9.20
2012,10,01,06,55,9.20
2012,10,01,06,56,9.20
2012,10,01,06,57,9.20
2012,10,01,06,58,9.20
2012,10,01,06,59,9.20
2012,10,01,07,00,9.20
2012,10,01,07,01,9.20
2012,10,01,07,02,9.20
2012,10,01,07,03,9.20
2012,10,01,07,04,9.10
2012,10,01,07,05,9.10
2012,10,01,07,06,9.10
2012,10,01,07,07,9.00
2012,10,01,07,08,9.00
2012,10,01,07,09,9.00
2012,10,01,07,10,9.10
2012,10,01,07,11,9.10
2012,10,01,07,12,9.20
2012,10,01,07,13,9.20
2012,10,01,07,14,9.20
2012,10,01,07,15,9.30
2012,10,01,07,16,9.30
2012,10,01,07,17,9.40
2012,10,01,07,18,9.40
2012,10,01,07,19,9.50
2012,10,01,07,20,9.50
2012,10,01,07,21,9.60
2012,10,01,07,22,9.60
2012,10,01,07,23,9.70
2012,10,01,07,24,9.70
2012,10,01,07,25,9.70
2012,10,01,07,26,9.80
2012,10,01,07,27,9.80
2012,10,01,07,28,9.90
2012,10,01,07,29,9.90
2012,10,01,07,30,9.90
2012,10,01,07,31,9.90
2012,10,01,07,32,9.90
2012,10,01,07,33,9.90
2012,10,01,07,34,9.90
2012,10,01,07,35,9.80
2012,10,01,07,36,9.80
2012,10,01,07,37,9.80
2012,10,01,07,38,9.80
2012,10,01,07,39,9.90
2012,10,01,07,40,9.90
2012,10,01,07,41,9.90
2012,10,01,07,42,9.90
2012,10,01,07,43,9.90
2012,10,01,07,44,9.80
2012,10,01,07,45,9.80
2012,10,01,07,46,9.80
2012,10,01,07,47,9.80
2012,10,01,07,48,9.80
2012,10,01,07,49,9.80
2012,10,01,07,50,9.80
2012,10,01,07,51,9.80
2012,10,01,07,52,9.80
2012,10,01,07,53,9.90
2012,10,01,07,54,9.90
2012,10,01,07,55,9.90
2012,10,01,07,56,9.90
2012,10,01,07,57,9.90
2012,10,01,07,58,9.90
2012,10,01,07,59,9.90
2012,10,01,08,00,9.90
2012,10,01,08,01,9.90
2012,10,01,08,02,9.90
2012,10,01,08,03,9.90
2012,10,01,08,04,9.90
2012,10,01,08,05,9.90
2012,10,01,08,06,10.00
2012,10,01,08,07,10.10
2012,10,01,08,08,10.10
2012,10,01,08,09,10.20
2012,10,01,08,10,10.40
2012,10,01,08,11,10.40
2012,10,01,08,12,10.50
2012,10,01,08,13,10.60
2012,10,01,08,14,10.60
2012,10,01,08,15,10.70
2012,10,01,08,16,10.70
2012,10,01,08,17,10.80
2012,10,01,08,18,10.80
2012,10,01,08,19,10.80
2012,10,01,08,20,10.80
2012,10,01,08,21,10.80
2012,10,01,08,22,10.80
2012,10,01,08,23,10.80
2012,10,01,08,24,10.70
2012,10,01,08,25,10.70
2012,10,01,08,26,10.70
2012,10,01,08,27,10.60
2012,10,01,08,28,10.70
2012,10,01,08,29,10.70
2012,10,01,08,30,10.70
2012,10,01,08,31,10.70
2012,10,01,08,32,10.70
2012,10,01,08,33,10.80
2012,10,01,08,34,10.80
2012,10,01,08,35,10.90
2012,10,01,08,36,10.90
2012,10,01,08,37,11.10
2012,10,01,08,38,11.10
2012,10,01,08,39,11.10
2012,10,01,08,40,11.10
2012,10,01,08,41,11.10
2012,10,01,08,42,11.10
2012,10,01,08,43,11.10
2012,10,01,08,44,11.10
2012,10,01,08,45,11.10
2012,10,01,08,46,11.20
2012,10,01,08,47,11.20
2012,10,01,08,48,11.20
2012,10,01,08,49,11.30
2012,10,01,08,50,11.30
2012,10,01,08,51,11.40
2012,10,01,08,52,11.40
2012,10,01,08,53,11.40
2012,10,01,08,54,11.50
2012,10,01,08,55,11.60
2012,10,01,08,56,11.60
2012,10,01,08,57,11.60
2012,10,01,08,58,11.60
2012,10,01,08,59,11.70
2012,10,01,09,00,11.80
2012,10,01,09,01,11.80
2012,10,01,09,02,11.80
2012,10,01,09,03,11.90
2012,10,01,09,04,11.90
2012,10,01,09,05,12.00
2012,10,01,09,06,12.00
2012,10,01,09,07,12.10
2012,10,01,09,08,12.10
2012,10,01,09,09,12.20
2012,10,01,09,10,12.20
2012,10,01,09,11,12.30
2012,10,01,09,12,12.40
2012,10,01,09,13,12.50
2012,10,01,09,14,12.50
2012,10,01,09,15,12.40
2012,10,01,09,16,12.40
2012,10,01,09,17,12.50
2012,10,01,09,18,12.60
2012,10,01,09,19,12.60
2012,10,01,09,20,12.60
2012,10,01,09,21,12.60
2012,10,01,09,22,12.50
2012,10,01,09,23,12.40
2012,10,01,09,24,12.40
2012,10,01,09,25,12.40
2012,10,01,09,26,12.40
2012,10,01,09,27,12.40
2012,10,01,09,28,12.40
2012,10,01,09,29,12.40
2012,10,01,09,30,12.40
2012,10,01,09,31,12.40
2012,10,01,09,32,12.50
2012,10,01,09,33,12.50
2012,10,01,09,34,12.40
2012,10,01,09,35,12.30
2012,10,01,09,36,12.30
2012,10,01,09,37,12.30
2012,10,01,09,38,12.10
2012,10,01,09,39,12.00
2012,10,01,09,40,11.90
2012,10,01,09,41,11.90
2012,10,01,09,42,11.90
2012,10,01,09,43,11.90
2012,10,01,09,44,11.80
2012,10,01,09,45,11.80
2012,10,01,09,46,11.60
2012,10,01,09,47,11.50
2012,10,01,09,48,11.40
2012,10,01,09,49,11.40
2012,10,01,09,50,11.40
2012,10,01,09,51,11.40
2012,10,01,09,52,11.30
2012,10,01,09,53,11.20
2012,10,01,09,54,11.20
2012,10,01,09,55,11.20
2012,10,01,09,56,11.20
2012,10,01,09,57,11.20
2012,10,01,09,58,11.20
2012,10,01,09,59,11.20
2012,10,01,10,00,11.20
2012,10,01,10,01,11.30
2012,10,01,10,02,11.40
2012,10,01,10,03,11.40
2012,10,01,10,04,11.40
2012,10,01,10,05,11.40
2012,10,01,10,06,11.50
2012,10,01,10,07,11.60
2012,10,01,10,08,11.60
2012,10,01,10,09,11.50
2012,10,01,10,10,11.40
2012,10,01,10,11,11.50
2012,10,01,10,12,11.60
2012,10,01,10,13,11.60
2012,10,01,10,14,11.70
2012,10,01,10,15,11.80
2012,10,01,10,16,11.70
2012,10,01,10,17,11.80
2012,10,01,10,18,11.80
2012,10,01,10,19,11.80
2012,10,01,10,20,11.80
2012,10,01,10,21,11.90
2012,10,01,10,22,12.00
2012,10,01,10,23,12.10
2012,10,01,10,24,12.20
2012,10,01,10,25,12.20
2012,10,01,10,26,12.20
2012,10,01,10,27,12.10
2012,10,01,10,28,12.00
2012,10,01,10,29,11.90
2012,10,01,10,30,11.90
2012,10,01,10,31,11.90
2012,10,01,10,32,12.00
2012,10,01,10,33,12.00
2012,10,01,10,34,12.20
2012,10,01,10,35,12.30
2012,10,01,10,36,12.30
2012,10,01,10,37,12.40
2012,10,01,10,38,12.50
2012,10,01,10,39,12.40
2012,10,01,10,40,12.40
2012,10,01,10,41,12.50
2012,10,01,10,42,12.60
2012,10,01,10,43,12.70
2012,10,01,10,44,12.80
2012,10,01,10,45,12.90
2012,10,01,10,46,13.00
2012,10,01,10,47,13.00
2012,10,01,10,48,13.10
2012,10,01,10,49,13.20
2012,10,01,10,50,13.20
2012,10,01,10,51,13.30
2012,10,01,10,52,13.30
2012,10,01,10,53,13.30
2012,10,01,10,54,13.30
2012,10,01,10,55,13.30
2012,10,01,10,56,13.30
2012,10,01,10,57,13.40
2012,10,01,10,58,13.60
2012,10,01,10,59,13.70
2012,10,01,11,00,13.80
2012,10,01,11,01,13.80
2012,10,01,11,02,13.90
2012,10,01,11,03,13.90
2012,10,01,11,04,14.00
2012,10,01,11,05,13.90
2012,10,01,11,06,13.80
2012,10,01,11,07,13.80
2012,10,01,11,08,13.90
2012,10,01,11,09,13.90
2012,10,01,11,10,13.90
2012,10,01,11,11,13.90
2012,10,01,11,12,13.90
2012,10,01,11,13,13.90
2012,10,01,11,14,13.90
2012,10,01,11,15,14.00
2012,10,01,11,16,14.00
2012,10,01,11,17,14.10
2012,10,01,11,18,14.20
2012,10,01,11,19,14.30
2012,10,01,11,20,14.50
2012,10,01,11,21,14.60
2012,10,01,11,22,14.70
2012,10,01,11,23,14.90
2012,10,01,11,24,15.00
2012,10,01,11,25,15.20
2012,10,01,11,26,15.40
2012,10,01,11,27,15.50
2012,10,01,11,28,15.60
2012,10,01,11,29,15.70
2012,10,01,11,30,15.90
2012,10,01,11,31,16.00
2012,10,01,11,32,16.10
2012,10,01,11,33,16.20
2012,10,01,11,34,16.30
2012,10,01,11,35,16.20
2012,10,01,11,36,16.20
2012,10,01,11,37,16.30
2012,10,01,11,38,16.30
2012,10,01,11,39,16.40
2012,10,01,11,40,16.40
2012,10,01,11,41,16.30
2012,10,01,11,42,16.20
2012,10,01,11,43,16.10
2012,10,01,11,44,16.10
2012,10,01,11,45,16.10
2012,10,01,11,46,16.10
2012,10,01,11,47,16.30
2012,10,01,11,48,16.40
2012,10,01,11,49,16.60
2012,10,01,11,50,16.70
2012,10,01,11,51,16.80
2012,10,01,11,52,17.00
2012,10,01,11,53,17.10
2012,10,01,11,54,17.20
2012,10,01,11,55,17.30
2012,10,01,11,56,17.40
2012,10,01,11,57,17.60
2012,10,01,11,58,17.70
2012,10,01,11,59,17.60
2012,10,01,12,00,17.60
2012,10,01,12,01,17.70
2012,10,01,12,02,17.70
2012,10,01,12,03,17.80
2012,10,01,12,04,17.90
2012,10,01,12,05,17.90
2012,10,01,12,06,18.00
2012,10,01,12,07,18.10
2012,10,01,12,08,18.10
2012,10,01,12,09,18.10
2012,10,01,12,10,18.10
2012,10,01,12,11,18.20
2012,10,01,12,12,18.20
2012,10,01,12,13,18.20
2012,10,01,12,14,18.30
2012,10,01,12,15,18.60
2012,10,01,12,16,18.80
2012,10,01,12,17,19.00
2012,10,01,12,18,19.10
2012,10,01,12,19,19.30
2012,10,01,12,20,19.40
2012,10,01,12,21,19.40
2012,10,01,12,22,19.40
2012,10,01,12,23,19.50
2012,10,01,12,24,19.50
2012,10,01,12,25,19.60
2012,10,01,12,26,19.60
2012,10,01,12,27,19.70
2012,10,01,12,28,19.80
2012,10,01,12,29,19.90
2012,10,01,12,30,19.90
2012,10,01,12,31,19.90
2012,10,01,12,32,20.00
2012,10,01,12,33,20.10
2012,10,01,12,34,20.10
2012,10,01,12,35,20.00
2012,10,01,12,36,20.00
2012,10,01,12,37,20.10
2012,10,01,12,38,20.10
2012,10,01,12,39,20.10
2012,10,01,12,40,20.10
2012,10,01,12,41,20.20
2012,10,01,12,42,20.20
2012,10,01,12,43,20.20
2012,10,01,12,44,20.20
2012,10,01,12,45,20.30
2012,10,01,12,46,20.30
2012,10,01,12,47,20.40
2012,10,01,12,48,20.50
2012,10,01,12,49,20.60
2012,10,01,12,50,20.70
2012,10,01,12,51,20.70
2012,10,01,12,52,20.80
2012,10,01,12,53,20.70
2012,10,01,12,54,20.70
2012,10,01,12,55,20.70
2012,10,01,12,56,20.70
2012,10,01,12,57,20.70
2012,10,01,12,58,20.60
2012,10,01,12,59,20.60
2012,10,01,13,00,20.50
2012,10,01,13,01,20.50
2012,10,01,13,02,20.50
2012,10,01,13,03,20.50
2012,10,01,13,04,20.50
2012,10,01,13,05,20.50
2012,10,01,13,06,20.50
2012,10,01,13,07,20.50
2012,10,01,13,08,20.50
2012,10,01,13,09,20.60
2012,10,01,13,10,20.70
2012,10,01,13,11,20.80
2012,10,01,13,12,20.90
2012,10,01,13,13,20.90
2012,10,01,13,14,21.00
2012,10,01,13,15,21.10
2012,10,01,13,16,21.10
2012,10,01,13,17,21.10
2012,10,01,13,18,21.20
2012,10,01,13,19,21.20
2012,10,01,13,20,21.30
2012,10,01,13,21,21.30
2012,10,01,13,22,21.30
2012,10,01,13,23,21.30
2012,10,01,13,24,21.30
2012,10,01,13,25,21.30
2012,10,01,13,26,21.40
2012,10,01,13,27,21.40
2012,10,01,13,28,21.40
2012,10,01,13,29,21.40
2012,10,01,13,30,21.50
2012,10,01,13,31,21.60
2012,10,01,13,32,21.60
2012,10,01,13,33,21.60
2012,10,01,13,34,21.60
2012,10,01,13,35,21.60
2012,10,01,13,36,21.60
2012,10,01,13,37,21.60
2012,10,01,13,38,21.60
2012,10,01,13,39,21.60
2012,10,01,13,40,21.60
2012,10,01,13,41,21.60
2012,10,01,13,42,21.70
2012,10,01,13,43,21.70
2012,10,01,13,44,21.80
2012,10,01,13,45,21.80
2012,10,01,13,46,21.80
2012,10,01,13,47,21.80
2012,10,01,13,48,21.80
2012,10,01,13,49,21.80
2012,10,01,13,50,21.80
2012,10,01,13,51,21.80
2012,10,01,13,52,21.90
2012,10,01,13,53,22.00
2012,10,01,13,54,22.00
2012,10,01,13,55,22.10
2012,10,01,13,56,22.20
2012,10,01,13,57,22.20
2012,10,01,13,58,22.30
2012,10,01,13,59,22.30
2012,10,01,14,00,22.30
2012,10,01,14,01,22.30
2012,10,01,14,02,22.40
2012,10,01,14,03,22.40
2012,10,01,14,04,22.40
2012,10,01,14,05,22.40
2012,10,01,14,06,22.40
2012,10,01,14,07,22.40
2012,10,01,14,08,22.50
2012,10,01,14,09,22.60
2012,10,01,14,10,22.60
2012,10,01,14,11,22.70
2012,10,01,14,12,22.60
2012,10,01,14,13,22.60
2012,10,01,14,14,22.70
2012,10,01,14,15,22.70
2012,10,01,14,16,22.80
2012,10,01,14,17,22.70
2012,10,01,14,18,22.30
2012,10,01,14,19,21.80
2012,10,01,14,20,21.60
2012,10,01,14,21,21.40
2012,10,01,14,22,21.20
2012,10,01,14,23,21.30
2012,10,01,14,24,21.30
2012,10,01,14,25,21.50
2012,10,01,14,26,21.60
2012,10,01,14,27,21.80
2012,10,01,14,28,21.70
2012,10,01,14,29,21.60
2012,10,01,14,30,21.40
2012,10,01,14,31,21.30
2012,10,01,14,32,21.10
2012,10,01,14,33,20.90
2012,10,01,14,34,20.70
2012,10,01,14,35,20.40
2012,10,01,14,36,20.20
2012,10,01,14,37,20.00
2012,10,01,14,38,19.80
2012,10,01,14,39,19.80
2012,10,01,14,40,20.00
2012,10,01,14,41,20.20
2012,10,01,14,42,20.40
2012,10,01,14,43,20.60
2012,10,01,14,44,20.80
2012,10,01,14,45,21.00
2012,10,01,14,46,21.00
2012,10,01,14,47,21.10
2012,10,01,14,48,21.20
2012,10,01,14,49,21.30
2012,10,01,14,50,21.30
2012,10,01,14,51,21.30
2012,10,01,14,52,21.30
2012,10,01,14,53,21.30
2012,10,01,14,54,21.30
2012,10,01,14,55,21.30
2012,10,01,14,56,21.30
2012,10,01,14,57,21.30
2012,10,01,14,58,21.30
2012,10,01,14,59,21.30
2012,10,01,15,00,21.30
2012,10,01,15,01,21.30
2012,10,01,15,02,21.30
2012,10,01,15,03,21.20
2012,10,01,15,04,21.10
2012,10,01,15,05,21.10
2012,10,01,15,06,21.10
2012,10,01,15,07,21.10
2012,10,01,15,08,21.10
2012,10,01,15,09,21.20
2012,10,01,15,10,21.20
2012,10,01,15,11,21.10
2012,10,01,15,12,20.70
2012,10,01,15,13,20.30
2012,10,01,15,14,19.90
2012,10,01,15,15,19.60
2012,10,01,15,16,19.30
2012,10,01,15,17,19.00
2012,10,01,15,18,18.80
2012,10,01,15,19,18.60
2012,10,01,15,20,18.50
2012,10,01,15,21,18.40
2012,10,01,15,22,18.40
2012,10,01,15,23,18.50
2012,10,01,15,24,18.60
2012,10,01,15,25,18.70
2012,10,01,15,26,18.90
2012,10,01,15,27,19.10
2012,10,01,15,28,19.50
2012,10,01,15,29,19.70
2012,10,01,15,30,20.00
2012,10,01,15,31,20.20
2012,10,01,15,32,20.40
2012,10,01,15,33,20.60
2012,10,01,15,34,20.70
2012,10,01,15,35,20.80
2012,10,01,15,36,20.90
2012,10,01,15,37,20.90
2012,10,01,15,38,21.00
2012,10,01,15,39,21.00
2012,10,01,15,40,21.10
2012,10,01,15,41,21.10
2012,10,01,15,42,21.20
2012,10,01,15,43,21.30
2012,10,01,15,44,21.30
2012,10,01,15,45,21.30
2012,10,01,15,46,21.30
2012,10,01,15,47,21.30
2012,10,01,15,48,21.30
2012,10,01,15,49,21.30
2012,10,01,15,50,21.30
2012,10,01,15,51,21.30
2012,10,01,15,52,21.30
2012,10,01,15,53,21.30
2012,10,01,15,54,21.30
2012,10,01,15,55,21.30
2012,10,01,15,56,21.30
2012,10,01,15,57,21.40
2012,10,01,15,58,21.40
2012,10,01,15,59,21.50
2012,10,01,16,00,21.60
2012,10,01,16,01,21.60
2012,10,01,16,02,21.50
2012,10,01,16,03,21.40
2012,10,01,16,04,21.40
2012,10,01,16,05,21.40
2012,10,01,16,06,21.40
2012,10,01,16,07,21.40
2012,10,01,16,08,21.60
2012,10,01,16,09,21.60
2012,10,01,16,10,21.60
2012,10,01,16,11,21.60
2012,10,01,16,12,21.60
2012,10,01,16,13,21.60
2012,10,01,16,14,21.60
2012,10,01,16,15,21.60
2012,10,01,16,16,21.60
2012,10,01,16,17,21.60
2012,10,01,16,18,21.60
2012,10,01,16,19,21.60
2012,10,01,16,20,21.60
2012,10,01,16,21,21.60
2012,10,01,16,22,21.60
2012,10,01,16,23,21.60
2012,10,01,16,24,21.60
2012,10,01,16,25,21.60
2012,10,01,16,26,21.60
2012,10,01,16,27,21.60
2012,10,01,16,28,21.60
2012,10,01,16,29,21.60
2012,10,01,16,30,21.60
2012,10,01,16,31,21.60
2012,10,01,16,32,21.60
2012,10,01,16,33,21.60
2012,10,01,16,34,21.50
2012,10,01,16,35,21.40
2012,10,01,16,36,21.40
2012,10,01,16,37,21.40
2012,10,01,16,38,21.40
2012,10,01,16,39,21.40
2012,10,01,16,40,21.30
2012,10,01,16,41,21.30
2012,10,01,16,42,21.30
2012,10,01,16,43,21.30
2012,10,01,16,44,21.30
2012,10,01,16,45,21.30
2012,10,01,16,46,21.30
2012,10,01,16,47,21.30
2012,10,01,16,48,21.30
2012,10,01,16,49,21.30
2012,10,01,16,50,21.30
2012,10,01,16,51,21.30
2012,10,01,16,52,21.30
2012,10,01,16,53,21.20
2012,10,01,16,54,21.20
2012,10,01,16,55,21.10
2012,10,01,16,56,21.10
2012,10,01,16,57,21.10
2012,10,01,16,58,21.00
2012,10,01,16,59,20.90
2012,10,01,17,00,20.90
2012,10,01,17,01,20.80
2012,10,01,17,02,20.80
2012,10,01,17,03,20.70
2012,10,01,17,04,20.50
2012,10,01,17,05,20.40
2012,10,01,17,06,20.40
2012,10,01,17,07,20.20
2012,10,01,17,08,20.20
2012,10,01,17,09,20.20
2012,10,01,17,10,20.10
2012,10,01,17,11,20.10
2012,10,01,17,12,20.10
2012,10,01,17,13,19.90
2012,10,01,17,14,19.90
2012,10,01,17,15,19.90
2012,10,01,17,16,19.80
2012,10,01,17,17,19.70
2012,10,01,17,18,19.70
2012,10,01,17,19,19.60
2012,10,01,17,20,19.60
2012,10,01,17,21,19.60
2012,10,01,17,22,19.50
2012,10,01,17,23,19.50
2012,10,01,17,24,19.50
2012,10,01,17,25,19.50
2012,10,01,17,26,19.50
2012,10,01,17,27,19.50
2012,10,01,17,28,19.40
2012,10,01,17,29,19.40
2012,10,01,17,30,19.40
2012,10,01,17,31,19.30
2012,10,01,17,32,19.30
2012,10,01,17,33,19.20
2012,10,01,17,34,19.20
2012,10,01,17,35,19.20
2012,10,01,17,36,19.10
2012,10,01,17,37,19.10